User: anonymous   Login
Location: Mainz-Finthen
(49.9906°N, 8.1713°E)
Time: 15:48:17
(UTC+00:00)
Language:

BEESAT - Orbit

View from above orbital plane
View from above orbital plane
View from above satellite
View from above satellite

Ground track
Ground track

The orbit data is extracted from the following two-line orbital elements,

1 35933U 09051C   21331.80725110  .00000213  00000-0  58592-4 0  9991
2 35933  98.5819 178.6209 0005184 329.5815  30.5081 14.56669099646816
Epoch (UTC): 27 November 2021 19:22:26
Eccentricity: 0.0005184
inclination: 98.5819°
perigee height: 700 km
apogee height: 707 km
right ascension of ascending node: 178.6209°
argument of perigee: 329.5815°
revolutions per day: 14.56669099
mean anomaly at epoch: 30.5081°
orbit number at epoch: 64681

The dashed part of the orbit path shows where the satellite is in the earth's shadow,  

DLR